TimeEDT,TemperatureF,Dew PointF,Humidity,Sea Level PressureIn,VisibilityMPH,Wind Direction,Wind SpeedMPH,Gust SpeedMPH,PrecipitationIn,Events,Conditions,WindDirDegrees,DateUTC
12:53 AM,39.0,25.0,57,29.80,10.0,NW,8.1,-,N/A,,Overcast,310,2012-11-02 04:53:00
1:53 AM,36.0,26.1,67,29.81,10.0,WNW,5.8,-,N/A,,Mostly Cloudy,290,2012-11-02 05:53:00
2:53 AM,37.0,26.1,65,29.82,10.0,WNW,6.9,-,N/A,,Overcast,290,2012-11-02 06:53:00
3:53 AM,36.0,26.1,67,29.82,10.0,WNW,8.1,-,N/A,,Scattered Clouds,300,2012-11-02 07:53:00
4:53 AM,37.0,27.0,67,29.83,10.0,NW,6.9,-,N/A,,Overcast,310,2012-11-02 08:53:00
5:53 AM,37.0,28.9,73,29.84,10.0,WNW,6.9,-,N/A,,Overcast,290,2012-11-02 09:53:00
6:53 AM,37.9,28.0,68,29.86,10.0,NW,8.1,-,N/A,,Overcast,310,2012-11-02 10:53:00
7:53 AM,39.0,28.0,65,29.87,10.0,NW,8.1,16.1,N/A,,Overcast,310,2012-11-02 11:53:00
8:13 AM,39.2,28.4,65,29.86,10.0,NW,11.5,-,N/A,,Overcast,320,2012-11-02 12:13:00
8:53 AM,39.0,30.0,70,29.90,10.0,NNW,13.8,19.6,N/A,,Overcast,340,2012-11-02 12:53:00
9:45 AM,37.4,30.2,75,29.90,10.0,North,12.7,23.0,N/A,,Mostly Cloudy,350,2012-11-02 13:45:00
9:53 AM,37.9,30.0,73,29.93,10.0,North,15.0,20.7,N/A,,Overcast,360,2012-11-02 13:53:00
10:23 AM,39.2,26.6,61,29.92,10.0,North,11.5,23.0,N/A,,Overcast,350,2012-11-02 14:23:00
10:53 AM,39.9,25.0,55,29.95,10.0,NNW,17.3,25.3,N/A,,Partly Cloudy,340,2012-11-02 14:53:00
11:53 AM,42.1,25.0,51,29.96,10.0,North,15.0,23.0,N/A,,Mostly Cloudy,350,2012-11-02 15:53:00
12:53 PM,39.9,26.1,58,29.98,10.0,NNW,17.3,26.5,N/A,,Overcast,340,2012-11-02 16:53:00
1:53 PM,41.0,26.1,55,29.98,10.0,NNW,10.4,-,N/A,,Overcast,340,2012-11-02 17:53:00
2:53 PM,41.0,27.0,57,29.99,10.0,North,13.8,-,N/A,,Overcast,350,2012-11-02 18:53:00
3:53 PM,41.0,27.0,57,30.00,10.0,NW,10.4,-,N/A,,Overcast,310,2012-11-02 19:53:00
4:53 PM,42.1,28.0,58,30.00,10.0,NW,10.4,-,N/A,,Overcast,310,2012-11-02 20:53:00
5:53 PM,42.1,28.9,60,30.02,10.0,NW,10.4,-,N/A,,Overcast,320,2012-11-02 21:53:00
6:53 PM,41.0,30.0,65,30.03,10.0,WNW,5.8,-,N/A,,Overcast,300,2012-11-02 22:53:00
7:53 PM,42.1,28.9,60,30.05,10.0,NW,6.9,-,N/A,,Overcast,320,2012-11-02 23:53:00
8:53 PM,42.1,28.0,58,30.06,10.0,NNW,9.2,-,N/A,,Overcast,340,2012-11-03 00:53:00
9:53 PM,41.0,28.0,60,30.06,10.0,NNW,10.4,-,N/A,,Overcast,340,2012-11-03 01:53:00
10:53 PM,39.9,28.9,65,30.07,10.0,North,11.5,-,N/A,,Overcast,350,2012-11-03 02:53:00
11:53 PM,39.0,27.0,62,30.09,10.0,North,9.2,-,N/A,,Overcast,350,2012-11-03 03:53:00